Cumberland, WI

10:30 AM CST on December 11, 2017 (GMT -0600)
Cumberland Municipal

Weather History for KUBE - June, 2013

Change the Weather History Date:

Friday, June 28, 2013

  Actual Average (KRPD) Record (KRPD)
Temperature  
Mean Temperature 66 °F -  
Max Temperature 73 °F 76 °F 86 °F (2001)
Min Temperature 59 °F 56 °F 41 °F (2004)
Cooling Degree Days 1    
Growing Degree Days 16 (Base 50)    
Moisture  
Dew Point 59 °F    
Average Humidity 86    
Maximum Humidity 100    
Minimum Humidity 61    
Precipitation  
Precipitation 0.20 in - - ()
Sea Level Pressure  
Sea Level Pressure 29.75 in    
Wind  
Wind Speed 9 mph (NW)    
Max Wind Speed 20 mph    
Max Gust Speed 24 mph    
Visibility 9 miles    
Events Rain , Thunderstorm    
Averages and records for this station are not official NWS values.
T = Trace of Precipitation, MM = Missing Value Source: NWS Daily Summary

Daily Weather History Graph

Daily Weather History Graph

Search for Another Location

Airport or City:

Trip Planner

Search our weather history database for the weather conditions in past years. The results will help you decide how hot, cold, wet, or windy it might be!

Date:

Astronomy

Jun. 28, 2013 Rise Set
Actual Time 5:21 AM CDT 9:00 PM CDT
Civil Twilight 4:43 AM CDT 9:38 PM CDT
Nautical Twilight 3:53 AM CDT 10:29 PM CDT
Astronomical Twilight 2:44 AM CDT 11:37 PM CDT
Moon No Moon Rise 11:49 AM CDT (6/28)
Length of Visible Light 16h 54m
Length of Day
15h 39m
Waning Gibbous, 66% of the Moon is Illuminated
Jun 28
Waning Gibbous
Jun 29
Last Quarter
Jul 8
New
Jul 15
First Quarter
Jul 22
Full

Hourly Weather History & Observations

Time (CDT) Temp. Dew Point Humidity Pressure Visibility Wind Dir Wind Speed Gust Speed Precip Events Conditions
12:15 AM 59.0 °F 59.0 °F 100% 29.78 in 10.0 mi WSW 5.8 mph - N/A   Clear
12:35 AM 59.0 °F 59.0 °F 100% 29.78 in 10.0 mi West 4.6 mph - N/A   Clear
12:55 AM 59.0 °F 57.2 °F 94% 29.78 in 10.0 mi West 4.6 mph - N/A   Clear
1:15 AM 60.8 °F 55.4 °F 82% 29.78 in 10.0 mi WNW 6.9 mph - N/A   Clear
1:35 AM 60.8 °F 55.4 °F 82% 29.78 in 10.0 mi WNW 9.2 mph - N/A   Scattered Clouds
1:55 AM 60.8 °F 57.2 °F 88% 29.77 in 10.0 mi WNW 8.1 mph - N/A   Scattered Clouds
2:15 AM 60.8 °F 57.2 °F 88% 29.77 in 10.0 mi West 8.1 mph - N/A   Clear
2:35 AM 60.8 °F 55.4 °F 82% 29.77 in 10.0 mi West 9.2 mph - N/A   Clear
2:55 AM 59.0 °F 55.4 °F 88% 29.76 in 10.0 mi West 6.9 mph - N/A   Clear
3:15 AM 59.0 °F 55.4 °F 88% 29.76 in 10.0 mi West 8.1 mph - N/A   Clear
3:35 AM 59.0 °F 55.4 °F 88% 29.76 in 10.0 mi WNW 8.1 mph - N/A   Clear
3:55 AM 59.0 °F 55.4 °F 88% 29.75 in 10.0 mi WNW 9.2 mph - N/A   Clear
4:15 AM 59.0 °F 55.4 °F 88% 29.75 in 10.0 mi West 9.2 mph - N/A   Clear
4:35 AM 59.0 °F 55.4 °F 88% 29.75 in 10.0 mi West 8.1 mph - N/A   Clear
4:55 AM 59.0 °F 55.4 °F 88% 29.75 in 10.0 mi WNW 5.8 mph - N/A   Clear
5:15 AM 59.0 °F 55.4 °F 88% 29.74 in 10.0 mi WNW 5.8 mph - N/A   Clear
5:35 AM 59.0 °F 55.4 °F 88% 29.74 in 10.0 mi WNW 5.8 mph - N/A   Mostly Cloudy
5:55 AM 60.8 °F 55.4 °F 82% 29.74 in 10.0 mi WNW 8.1 mph - N/A   Overcast
6:15 AM 60.8 °F 57.2 °F 88% 29.74 in 10.0 mi WNW 8.1 mph - N/A   Overcast
6:35 AM 60.8 °F 57.2 °F 88% 29.74 in 10.0 mi WNW 10.4 mph 17.3 mph N/A   Overcast
6:55 AM 62.6 °F 57.2 °F 82% 29.74 in 10.0 mi WNW 9.2 mph - N/A   Overcast
7:55 AM 62.6 °F 59.0 °F 88% 29.74 in 10.0 mi NW 11.5 mph - N/A   Overcast
8:15 AM 60.8 °F 59.0 °F 94% 29.74 in 2.5 mi NW 10.4 mph - 0.01 in Rain Heavy Rain
8:35 AM 62.6 °F 59.0 °F 88% 29.74 in 7.0 mi WNW 9.2 mph - 0.01 in   Overcast
8:55 AM 62.6 °F 59.0 °F 88% 29.74 in 4.0 mi NW 12.7 mph - 0.01 in   Overcast
9:15 AM 62.6 °F 59.0 °F 88% 29.74 in 4.0 mi NW 12.7 mph - N/A Rain Light Rain
9:35 AM 62.6 °F 60.8 °F 94% 29.74 in 2.5 mi NW 13.8 mph 18.4 mph N/A   Overcast
9:55 AM 62.6 °F 60.8 °F 94% 29.74 in 10.0 mi NNW 15.0 mph 21.9 mph N/A   Overcast
10:15 AM 64.4 °F 60.8 °F 88% 29.74 in 10.0 mi NW 13.8 mph 21.9 mph N/A   Overcast
10:35 AM 64.4 °F 60.8 °F 88% 29.74 in 10.0 mi NW 15.0 mph 20.7 mph N/A   Overcast
10:55 AM 64.4 °F 60.8 °F 88% 29.74 in 7.0 mi NW 12.7 mph - N/A   Overcast
11:15 AM 64.4 °F 60.8 °F 88% 29.74 in 7.0 mi NW 11.5 mph 19.6 mph N/A Rain Light Rain
11:35 AM 62.6 °F 60.8 °F 94% 29.75 in 7.0 mi NW 15.0 mph 18.4 mph 0.01 in   Overcast
11:55 AM 64.4 °F 62.6 °F 94% 29.75 in 10.0 mi NNW 13.8 mph 18.4 mph 0.01 in   Overcast
12:15 PM 68.0 °F 62.6 °F 83% 29.74 in 10.0 mi NNW 12.7 mph - N/A   Overcast
12:35 PM 68.0 °F 60.8 °F 78% 29.74 in 10.0 mi NNW 16.1 mph - N/A   Overcast
12:55 PM 68.0 °F 60.8 °F 78% 29.74 in 10.0 mi NNW 16.1 mph 23.0 mph N/A   Overcast
1:15 PM 71.6 °F 60.8 °F 69% 29.74 in 10.0 mi NW 12.7 mph 19.6 mph N/A   Overcast
1:35 PM 71.6 °F 60.8 °F 69% 29.73 in 10.0 mi NW 17.3 mph 23.0 mph N/A   Mostly Cloudy
1:55 PM 71.6 °F 60.8 °F 69% 29.72 in 10.0 mi NNW 13.8 mph 21.9 mph N/A   Overcast
2:15 PM 73.4 °F 60.8 °F 65% 29.72 in 10.0 mi NW 13.8 mph 20.7 mph N/A   Mostly Cloudy
2:35 PM 73.4 °F 59.0 °F 61% 29.72 in 10.0 mi NW 17.3 mph 23.0 mph N/A   Mostly Cloudy
2:55 PM 73.4 °F 59.0 °F 61% 29.72 in 10.0 mi NNW 17.3 mph 23.0 mph N/A   Mostly Cloudy
3:15 PM 73.4 °F 59.0 °F 61% 29.73 in 10.0 mi NW 17.3 mph 24.2 mph N/A   Mostly Cloudy
3:35 PM 73.4 °F 59.0 °F 61% 29.72 in 10.0 mi NNW 19.6 mph 24.2 mph N/A Thunderstorm Mostly Cloudy
3:55 PM 71.6 °F 59.0 °F 64% 29.73 in 10.0 mi NNW 17.3 mph 21.9 mph N/A Rain Light Rain
4:15 PM 66.2 °F 62.6 °F 88% 29.74 in 5.0 mi North 9.2 mph - 0.06 in Rain Light Rain
4:35 PM 64.4 °F 62.6 °F 94% 29.74 in 7.0 mi North 9.2 mph - 0.09 in Rain Light Rain
4:55 PM 64.4 °F 62.6 °F 94% 29.75 in 5.0 mi North 9.2 mph - 0.14 in Rain Heavy Rain
5:15 PM 64.4 °F 62.6 °F 94% 29.75 in 7.0 mi North 8.1 mph - 0.02 in Rain Rain
5:35 PM 68.0 °F 62.6 °F 83% 29.74 in 7.0 mi North 6.9 mph - 0.03 in Rain Light Rain
5:55 PM 68.0 °F 62.6 °F 83% 29.74 in 10.0 mi North 9.2 mph - 0.03 in   Mostly Cloudy
6:15 PM 66.2 °F 62.6 °F 88% 29.74 in 10.0 mi NNW 9.2 mph - N/A   Scattered Clouds
6:35 PM 66.2 °F 62.6 °F 88% 29.74 in 10.0 mi NW 9.2 mph - N/A   Scattered Clouds
6:55 PM 64.4 °F 62.6 °F 94% 29.74 in 10.0 mi NNW 8.1 mph - N/A   Scattered Clouds
7:15 PM 64.4 °F 62.6 °F 94% 29.75 in 10.0 mi NNW 9.2 mph - N/A   Scattered Clouds
7:35 PM 64.4 °F 62.6 °F 94% 29.76 in 10.0 mi NNW 9.2 mph - N/A   Scattered Clouds
7:55 PM 64.4 °F 60.8 °F 88% 29.77 in 10.0 mi NNW 10.4 mph - N/A   Scattered Clouds
8:15 PM 64.4 °F 60.8 °F 88% 29.77 in 10.0 mi North 8.1 mph - N/A   Mostly Cloudy
8:35 PM 64.4 °F 60.8 °F 88% 29.78 in 10.0 mi North 8.1 mph - N/A   Overcast
8:55 PM 64.4 °F 60.8 °F 88% 29.78 in 10.0 mi North 6.9 mph - N/A   Overcast
9:15 PM 64.4 °F 60.8 °F 88% 29.78 in 10.0 mi North 4.6 mph - N/A   Mostly Cloudy
9:35 PM 62.6 °F 60.8 °F 94% 29.78 in 10.0 mi NNW 5.8 mph - N/A   Overcast
9:55 PM 62.6 °F 60.8 °F 94% 29.79 in 10.0 mi North 5.8 mph - N/A   Overcast
10:15 PM 62.6 °F 60.8 °F 94% 29.79 in 10.0 mi NNW 5.8 mph - N/A   Light Drizzle
10:35 PM 62.6 °F 60.8 °F 94% 29.79 in 10.0 mi NNW 6.9 mph - N/A   Overcast
10:55 PM 62.6 °F 60.8 °F 94% 29.79 in 10.0 mi North 8.1 mph - N/A   Overcast
11:15 PM 62.6 °F 59.0 °F 88% 29.78 in 10.0 mi North 6.9 mph - N/A   Overcast
11:35 PM 62.6 °F 59.0 °F 88% 29.78 in 10.0 mi North 5.8 mph - N/A Rain Light Rain
11:55 PM 62.6 °F 60.8 °F 94% 29.78 in 10.0 mi North 3.5 mph - 0.01 in Rain Light Rain